DLH8UL EDDF-EGBB

Flight info

Callsign DLH8UL
Flight time N/A
Altitude 36000
Route OBOKA2E/07C OBOKA Z29 TORNU DCT GALSO Q63 ERING L179 LAM L610 HEMEL
Aircraft CRJ9/M-SDFGIRWY/S

Departure

Time 2026-04-14 12:53
Airport Frankfurt Main Airport (EDDF)

Arrival

Time N/A
Airport Birmingham Airport (EGBB)
Time Latitude Longitude Altitude Speed Heading
2026-04-14 12:24 50.03709 8.54133 342 ft 0 kts 159°
2026-04-14 12:50 50.03703 8.54136 345 ft 3 kts 159°
2026-04-14 12:50 50.03641 8.54172 338 ft 6 kts 154°
2026-04-14 12:50 50.03634 8.54212 338 ft 5 kts 74°
2026-04-14 12:51 50.03631 8.54283 338 ft 8 kts 123°
2026-04-14 12:51 50.03582 8.54326 336 ft 9 kts 159°
2026-04-14 12:51 50.03529 8.54357 351 ft 6 kts 159°
2026-04-14 12:51 50.03499 8.54403 347 ft 6 kts 110°
2026-04-14 12:52 50.03502 8.54467 343 ft 7 kts 70°
2026-04-14 12:52 50.03574 8.54764 344 ft 64 kts 69°
2026-04-14 12:52 50.03814 8.55771 352 ft 131 kts 70°
2026-04-14 12:52 50.04187 8.57347 500 ft 170 kts 69°
2026-04-14 12:53 50.04590 8.59081 1310 ft 169 kts 69°
2026-04-14 12:53 50.04987 8.60801 2217 ft 169 kts 66°
2026-04-14 12:53 50.05452 8.62542 2897 ft 179 kts 54°
2026-04-14 12:53 50.06479 8.63548 3409 ft 181 kts
2026-04-14 12:54 50.07743 8.63703 3993 ft 184 kts
2026-04-14 12:54 50.09021 8.63637 4606 ft 188 kts 357°
2026-04-14 12:54 50.10348 8.63509 5136 ft 195 kts 356°
2026-04-14 12:54 50.11768 8.63336 5516 ft 214 kts 355°
2026-04-14 12:55 50.13304 8.63159 6124 ft 224 kts 356°
2026-04-14 12:55 50.14867 8.63032 6904 ft 227 kts 358°
2026-04-14 12:55 50.16466 8.62934 7580 ft 233 kts 357°
2026-04-14 12:55 50.18076 8.62683 8307 ft 238 kts 342°
2026-04-14 12:56 50.19430 8.61222 9008 ft 240 kts 311°
2026-04-14 12:56 50.20524 8.59193 9542 ft 254 kts 306°
2026-04-14 12:56 50.21621 8.56894 9688 ft 281 kts 303°
2026-04-14 12:56 50.22766 8.54278 9991 ft 302 kts 301°
2026-04-14 12:57 50.23954 8.51457 10359 ft 319 kts 301°
2026-04-14 12:57 50.25188 8.48483 10765 ft 334 kts 301°
2026-04-14 12:57 50.26507 8.45406 11334 ft 343 kts 302°
2026-04-14 12:57 50.27866 8.42314 12043 ft 348 kts 303°
2026-04-14 12:58 50.29241 8.39188 12782 ft 351 kts 302°
2026-04-14 12:58 50.30631 8.36016 13508 ft 355 kts 302°
2026-04-14 12:58 50.32016 8.32852 14199 ft 359 kts 302°
2026-04-14 12:58 50.33419 8.29621 14945 ft 359 kts 303°
2026-04-14 12:59 50.34836 8.26379 15596 ft 362 kts 303°
2026-04-14 12:59 50.36259 8.23103 16202 ft 366 kts 304°
2026-04-14 12:59 50.37699 8.19787 16808 ft 370 kts 304°
2026-04-14 12:59 50.39155 8.16441 17412 ft 373 kts 304°
2026-04-14 13:00 50.40619 8.13064 18008 ft 376 kts 304°
2026-04-14 13:00 50.42097 8.09651 18574 ft 379 kts 304°
2026-04-14 13:00 50.43584 8.06216 19070 ft 382 kts 304°
2026-04-14 13:00 50.45060 8.02799 19557 ft 385 kts 304°
2026-04-14 13:01 50.46565 7.99310 20023 ft 388 kts 304°
2026-04-14 13:01 50.48081 7.95787 20485 ft 391 kts 304°
2026-04-14 13:01 50.49604 7.92244 20957 ft 393 kts 304°
2026-04-14 13:01 50.51136 7.88675 21443 ft 394 kts 304°
2026-04-14 13:02 50.52674 7.85087 21879 ft 397 kts 303°
2026-04-14 13:02 50.54220 7.81479 22307 ft 399 kts 303°
2026-04-14 13:02 50.55777 7.77844 22724 ft 402 kts 303°
2026-04-14 13:02 50.57341 7.74183 23131 ft 405 kts 303°
2026-04-14 13:03 50.58892 7.70544 23525 ft 407 kts 303°
2026-04-14 13:03 50.60472 7.66832 23889 ft 409 kts 303°
2026-04-14 13:03 50.62059 7.63097 24222 ft 411 kts 303°
2026-04-14 13:03 50.63653 7.59346 24585 ft 412 kts 303°
2026-04-14 13:04 50.65249 7.55581 24903 ft 414 kts 303°
2026-04-14 13:04 50.66851 7.51799 25210 ft 416 kts 303°
2026-04-14 13:04 50.68460 7.47994 25510 ft 418 kts 304°
2026-04-14 13:04 50.70065 7.44192 25883 ft 417 kts 304°
2026-04-14 13:05 50.71615 7.40382 26169 ft 419 kts 302°
2026-04-14 13:05 50.73101 7.36417 26465 ft 421 kts 301°
2026-04-14 13:05 50.74573 7.32413 26739 ft 422 kts 300°
2026-04-14 13:05 50.76039 7.28383 27007 ft 424 kts 300°
2026-04-14 13:06 50.77505 7.24336 27273 ft 425 kts 300°
2026-04-14 13:06 50.78953 7.20252 27523 ft 427 kts 299°
2026-04-14 13:06 50.80326 7.16079 27776 ft 429 kts 297°
2026-04-14 13:06 50.81672 7.11866 27999 ft 430 kts 297°
2026-04-14 13:07 50.82951 7.07583 28240 ft 432 kts 295°
2026-04-14 13:07 50.84187 7.03249 28510 ft 432 kts 296°
2026-04-14 13:07 50.85409 6.98916 28744 ft 433 kts 296°
2026-04-14 13:07 50.86619 6.94604 28962 ft 434 kts 296°
2026-04-14 13:08 50.87836 6.90222 29151 ft 436 kts 295°
2026-04-14 13:08 50.89051 6.85823 29375 ft 437 kts 295°
2026-04-14 13:08 50.90266 6.81404 29562 ft 438 kts 295°
2026-04-14 13:08 50.91478 6.76969 29743 ft 439 kts 295°
2026-04-14 13:09 50.92624 6.72471 29923 ft 441 kts 293°
2026-04-14 13:09 50.93734 6.67939 30104 ft 442 kts 293°
2026-04-14 13:09 50.94850 6.63386 30270 ft 443 kts 293°
2026-04-14 13:09 50.95966 6.58830 30474 ft 442 kts 294°
2026-04-14 13:10 50.97071 6.54291 30667 ft 442 kts 294°
2026-04-14 13:10 50.98166 6.49806 30800 ft 442 kts 294°
2026-04-14 13:10 50.99281 6.45253 30926 ft 443 kts 294°
2026-04-14 13:10 51.00394 6.40695 31047 ft 444 kts 294°
2026-04-14 13:11 51.01508 6.36116 31167 ft 444 kts 294°
2026-04-14 13:11 51.02617 6.31534 31283 ft 445 kts 294°
2026-04-14 13:11 51.03725 6.26943 31395 ft 446 kts 294°
2026-04-14 13:11 51.04834 6.22345 31499 ft 446 kts 294°
2026-04-14 13:12 51.05945 6.17728 31586 ft 447 kts 294°
2026-04-14 13:12 51.07051 6.13116 31780 ft 445 kts 294°
2026-04-14 13:12 51.08149 6.08515 31835 ft 446 kts 294°
2026-04-14 13:13 51.10339 5.99366 32031 ft 446 kts 294°
2026-04-14 13:13 51.11440 5.94756 32169 ft 445 kts 294°
2026-04-14 13:13 51.12535 5.90148 32254 ft 445 kts 294°
2026-04-14 13:13 51.13627 5.85546 32357 ft 445 kts 294°
2026-04-14 13:14 51.14716 5.80943 32483 ft 444 kts 294°
2026-04-14 13:14 51.15800 5.76347 32611 ft 443 kts 294°
2026-04-14 13:14 51.16884 5.71750 32670 ft 443 kts 294°
2026-04-14 13:14 51.17944 5.67227 32888 ft 440 kts 294°
2026-04-14 13:15 51.19012 5.62663 33024 ft 439 kts 294°
2026-04-14 13:15 51.21147 5.53557 33234 ft 438 kts 293°
2026-04-14 13:15 51.22205 5.49005 33357 ft 437 kts 293°
2026-04-14 13:16 51.23265 5.44454 33418 ft 438 kts 293°
2026-04-14 13:16 51.24323 5.39905 33530 ft 437 kts 293°
2026-04-14 13:16 51.25378 5.35361 33587 ft 437 kts 293°
2026-04-14 13:16 51.26428 5.30813 33703 ft 437 kts 293°
2026-04-14 13:17 51.27464 5.26323 33799 ft 436 kts 293°
2026-04-14 13:17 51.28509 5.21780 33901 ft 435 kts 293°
2026-04-14 13:17 51.29549 5.17253 34013 ft 434 kts 293°
2026-04-14 13:18 51.31622 5.08192 34152 ft 434 kts 293°
2026-04-14 13:18 51.33691 4.99130 34297 ft 434 kts 293°
2026-04-14 13:19 51.35739 4.90099 34428 ft 434 kts 293°
2026-04-14 13:19 51.37795 4.81008 34509 ft 435 kts 293°
2026-04-14 13:20 51.39843 4.71909 34634 ft 435 kts 292°
2026-04-14 13:20 51.41887 4.62800 34743 ft 435 kts 292°
2026-04-14 13:21 51.43922 4.53677 34867 ft 434 kts 292°
2026-04-14 13:21 51.45937 4.44603 34952 ft 435 kts 292°
2026-04-14 13:22 51.47961 4.35458 35075 ft 435 kts 292°
2026-04-14 13:22 51.49980 4.26300 35229 ft 435 kts 292°
2026-04-14 13:23 51.51975 4.17195 35361 ft 435 kts 292°
2026-04-14 13:23 51.53980 4.08020 35440 ft 436 kts 292°
2026-04-14 13:24 51.55976 3.98833 35558 ft 436 kts 292°
2026-04-14 13:24 51.57966 3.89630 35688 ft 436 kts 291°
2026-04-14 13:24 51.58960 3.85025 35713 ft 436 kts 291°
2026-04-14 13:25 51.59948 3.80426 35837 ft 435 kts 291°
2026-04-14 13:25 51.60922 3.75891 35871 ft 435 kts 291°
2026-04-14 13:26 51.63878 3.62057 36019 ft 436 kts 291°
2026-04-14 13:26 51.64858 3.57439 36068 ft 436 kts 291°
2026-04-14 13:26 51.66819 3.48197 36165 ft 436 kts 291°
2026-04-14 13:27 51.68762 3.38995 36195 ft 438 kts 291°
2026-04-14 13:27 51.70713 3.29674 36199 ft 439 kts 291°
2026-04-14 13:28 51.71809 3.19957 36215 ft 447 kts 276°
2026-04-14 13:28 51.72024 3.09923 36214 ft 448 kts 276°
2026-04-14 13:29 51.71978 2.99835 36209 ft 454 kts 267°
2026-04-14 13:29 51.70945 2.89810 36189 ft 457 kts 265°
2026-04-14 13:30 51.69960 2.79707 36209 ft 455 kts 268°
2026-04-14 13:30 51.69080 2.69598 36205 ft 456 kts 267°
2026-04-14 13:31 51.68174 2.59495 36198 ft 456 kts 267°
2026-04-14 13:31 51.67261 2.49441 36191 ft 456 kts 266°
2026-04-14 13:32 51.66342 2.39334 36172 ft 456 kts 267°
2026-04-14 13:32 51.65410 2.29260 36184 ft 454 kts 268°
2026-04-14 13:33 51.64473 2.19216 36186 ft 453 kts 267°
2026-04-14 13:33 51.63523 2.09198 36182 ft 452 kts 268°
2026-04-14 13:34 51.62163 1.94253 36182 ft 452 kts 268°
2026-04-14 13:35 51.61216 1.84280 36169 ft 450 kts 268°
2026-04-14 13:35 51.60274 1.74338 36173 ft 449 kts 268°
2026-04-14 13:36 51.59397 1.64417 36167 ft 444 kts 272°
2026-04-14 13:36 51.59303 1.54620 36172 ft 439 kts 277°
2026-04-14 13:37 51.59714 1.44866 36164 ft 436 kts 280°
2026-04-14 13:37 51.60211 1.35148 36160 ft 436 kts 279°
2026-04-14 13:38 51.60627 1.25421 36150 ft 436 kts 279°
2026-04-14 13:38 51.61012 1.15692 36139 ft 436 kts 279°
2026-04-14 13:39 51.61400 1.06027 36139 ft 436 kts 279°
2026-04-14 13:39 51.61781 0.96311 36096 ft 436 kts 279°
2026-04-14 13:40 51.62152 0.86581 36122 ft 435 kts 279°
2026-04-14 13:40 51.62513 0.76871 36128 ft 435 kts 279°
2026-04-14 13:41 51.62862 0.67226 36131 ft 435 kts 279°
2026-04-14 13:41 51.63210 0.57514 36130 ft 435 kts 279°
2026-04-14 13:42 51.63549 0.47797 36107 ft 435 kts 278°
2026-04-14 13:42 51.63881 0.38095 36120 ft 434 kts 278°
2026-04-14 13:43 51.64202 0.28399 36120 ft 434 kts 278°
2026-04-14 13:43 51.64865 0.18893 36125 ft 426 kts 288°
2026-04-14 13:44 51.66464 0.09730 36124 ft 425 kts 290°
2026-04-14 13:44 51.68482 0.00841 36121 ft 421 kts 297°
2026-04-14 13:45 51.71030 -0.07643 36071 ft 420 kts 297°
2026-04-14 13:45 51.73455 -0.16163 36080 ft 421 kts 296°
2026-04-14 13:46 51.75873 -0.24770 36079 ft 421 kts 296°
2026-04-14 13:46 51.78301 -0.33378 36071 ft 421 kts 296°
2026-04-14 13:47 51.80735 -0.41980 36101 ft 421 kts 297°
2026-04-14 13:47 51.83162 -0.50539 36107 ft 422 kts 296°
2026-04-14 13:48 51.85613 -0.59153 36099 ft 422 kts 297°
2026-04-14 13:48 51.88070 -0.67763 36091 ft 422 kts 297°
2026-04-14 13:49 51.90535 -0.76378 36086 ft 421 kts 297°
2026-04-14 13:49 51.92989 -0.84928 36073 ft 421 kts 297°
2026-04-14 13:50 51.95465 -0.93533 36064 ft 421 kts 297°
2026-04-14 13:50 51.97948 -1.02136 36066 ft 421 kts 296°
2026-04-14 13:51 52.00438 -1.10739 36067 ft 421 kts 296°
2026-04-14 13:51 52.02934 -1.19348 36073 ft 421 kts 296°
2026-04-14 13:52 52.05423 -1.27895 36113 ft 422 kts 296°
2026-04-14 13:52 52.07941 -1.36522 36097 ft 422 kts 296°
2026-04-14 13:53 52.10466 -1.45146 36095 ft 422 kts 296°
2026-04-14 13:53 52.12996 -1.53764 36095 ft 422 kts 296°
2026-04-14 13:54 52.15512 -1.62311 36080 ft 421 kts 296°
2026-04-14 13:54 52.18050 -1.70912 36072 ft 421 kts 296°
2026-04-14 13:55 52.20594 -1.79512 36042 ft 421 kts 296°
2026-04-14 13:55 52.23144 -1.88109 36059 ft 421 kts 296°
2026-04-14 13:56 52.25702 -1.96702 36048 ft 421 kts 296°
2026-04-14 13:56 52.28249 -2.05230 36045 ft 421 kts 296°
2026-04-14 13:57 52.30811 -2.13816 36043 ft 420 kts 295°
2026-04-14 13:57 52.33370 -2.22404 36038 ft 420 kts 296°
2026-04-14 13:58 52.35933 -2.30985 36037 ft 420 kts 296°
2026-04-14 13:58 52.38484 -2.39506 36031 ft 420 kts 296°
2026-04-14 13:59 52.41060 -2.48081 36037 ft 420 kts 296°
2026-04-14 13:59 52.43642 -2.56661 36026 ft 420 kts 295°
2026-04-14 14:00 52.46225 -2.65235 36033 ft 420 kts 295°
2026-04-14 14:00 52.48824 -2.73830 36010 ft 420 kts 295°
2026-04-14 14:01 52.51410 -2.82361 36013 ft 420 kts 295°
2026-04-14 14:01 52.54026 -2.90949 36007 ft 420 kts 295°
2026-04-14 14:02 52.56641 -2.99538 35992 ft 420 kts 295°
2026-04-14 14:02 52.59267 -3.08126 36002 ft 421 kts 295°
2026-04-14 14:03 52.61884 -3.16670 36001 ft 421 kts 295°
2026-04-14 14:03 52.64523 -3.25275 35989 ft 421 kts 295°
2026-04-14 14:04 52.67172 -3.33892 35982 ft 421 kts 295°
2026-04-14 14:04 52.69826 -3.42495 35977 ft 421 kts 295°
2026-04-14 14:05 52.72474 -3.51055 35983 ft 422 kts 295°
2026-04-14 14:05 52.75144 -3.59676 35972 ft 422 kts 294°
2026-04-14 14:06 52.77819 -3.68290 35963 ft 422 kts 294°
2026-04-14 14:06 52.80513 -3.76902 35964 ft 421 kts 294°
2026-04-14 14:07 52.83200 -3.85510 35950 ft 421 kts 294°
2026-04-14 14:07 52.85874 -3.94061 35948 ft 421 kts 294°
2026-04-14 14:08 52.88574 -4.02666 35946 ft 421 kts 294°
2026-04-14 14:08 52.91272 -4.11277 35938 ft 421 kts 294°
2026-04-14 14:09 52.93981 -4.19899 35958 ft 422 kts 294°
2026-04-14 14:09 52.96673 -4.28471 35937 ft 422 kts 294°
2026-04-14 14:10 52.99391 -4.37096 35933 ft 422 kts 294°
2026-04-14 14:10 53.02114 -4.45724 35937 ft 422 kts 294°
2026-04-14 14:11 53.04848 -4.54363 35933 ft 422 kts 294°
2026-04-14 14:11 53.07584 -4.62989 35924 ft 422 kts 293°
2026-04-14 14:12 53.10307 -4.71566 35908 ft 422 kts 293°
2026-04-14 14:12 53.13055 -4.80201 35908 ft 422 kts 294°
2026-04-14 14:13 53.15811 -4.88844 35935 ft 423 kts 294°
2026-04-14 14:13 53.18574 -4.97494 35911 ft 423 kts 294°
2026-04-14 14:14 53.21330 -5.06098 35909 ft 423 kts 294°
2026-04-14 14:14 53.24109 -5.14761 35883 ft 424 kts 293°
2026-04-14 14:15 53.26895 -5.23429 35900 ft 424 kts 293°
2026-04-14 14:15 53.29691 -5.32106 35899 ft 424 kts 293°
2026-04-14 14:16 53.32494 -5.40789 35885 ft 424 kts 293°
2026-04-14 14:16 53.35284 -5.49418 35895 ft 425 kts 293°
2026-04-14 14:17 53.39512 -5.62457 35898 ft 425 kts 293°
2026-04-14 14:17 53.42349 -5.71174 35895 ft 426 kts 294°
2026-04-14 14:18 53.45191 -5.79904 35867 ft 427 kts 294°
2026-04-14 14:18 53.48024 -5.88582 35861 ft 426 kts 294°
2026-04-14 14:19 53.50877 -5.97307 35864 ft 426 kts 294°
2026-04-14 14:19 53.53741 -6.06041 35840 ft 426 kts 294°
2026-04-14 14:20 53.56609 -6.14770 35839 ft 426 kts 294°
2026-04-14 14:20 53.59461 -6.23440 35842 ft 427 kts 293°
2026-04-14 14:21 53.62333 -6.32177 35821 ft 428 kts 293°
2026-04-14 14:21 53.65224 -6.40959 35826 ft 428 kts 293°
2026-04-14 14:22 53.67631 -6.48257 35813 ft 429 kts 293°
2026-04-14 14:22 53.70807 -6.57877 35814 ft 429 kts 293°
2026-04-14 14:23 53.73728 -6.66700 35817 ft 430 kts 294°
2026-04-14 14:23 53.76156 -6.74028 35812 ft 430 kts 294°
2026-04-14 14:24 53.79087 -6.82858 35811 ft 431 kts 293°
2026-04-14 14:24 53.82500 -6.93159 35801 ft 433 kts 293°
2026-04-14 14:25 53.85451 -7.02056 35794 ft 434 kts 293°
2026-04-14 14:25 53.87911 -7.09459 35795 ft 434 kts 293°
2026-04-14 14:26 53.90879 -7.18382 35784 ft 435 kts 293°
2026-04-14 14:26 53.93857 -7.27319 35791 ft 435 kts 293°
2026-04-14 14:27 53.96844 -7.36271 35786 ft 436 kts 293°
2026-04-14 14:27 53.99816 -7.45183 35773 ft 437 kts 293°
2026-04-14 14:28 54.02820 -7.54178 35779 ft 438 kts 293°
2026-04-14 14:28 54.05833 -7.63195 35762 ft 439 kts 293°
2026-04-14 14:29 54.08859 -7.72234 35762 ft 439 kts 293°
2026-04-14 14:29 54.11894 -7.81278 35758 ft 440 kts 293°
2026-04-14 14:30 54.14916 -7.90267 35741 ft 440 kts 293°
2026-04-14 14:30 54.17965 -7.99322 35782 ft 441 kts 293°
2026-04-14 14:31 54.21020 -8.08408 35738 ft 441 kts 293°
2026-04-14 14:31 54.24086 -8.17508 35764 ft 442 kts 293°
2026-04-14 14:32 54.27155 -8.26604 35733 ft 442 kts 293°
2026-04-14 14:32 54.30215 -8.35639 35722 ft 441 kts 293°
2026-04-14 14:33 54.33299 -8.44735 35747 ft 441 kts 293°
2026-04-14 14:33 54.36388 -8.53830 35750 ft 442 kts 293°
2026-04-14 14:34 54.41017 -8.67425 35741 ft 442 kts 292°
2026-04-14 14:35 54.44127 -8.76544 35750 ft 443 kts 292°
2026-04-14 14:35 54.47246 -8.85674 35724 ft 443 kts 292°
2026-04-14 14:36 54.50373 -8.94800 35713 ft 443 kts 293°
2026-04-14 14:36 54.53507 -9.03936 35704 ft 443 kts 293°
2026-04-14 14:37 54.56618 -9.13018 35705 ft 443 kts 293°
2026-04-14 14:37 54.59752 -9.22164 35712 ft 444 kts 292°
2026-04-14 14:38 54.62899 -9.31343 35689 ft 445 kts 292°
2026-04-14 14:38 54.66061 -9.40558 35705 ft 446 kts 292°
2026-04-14 14:39 54.69214 -9.49733 35696 ft 447 kts 292°
2026-04-14 14:39 54.72394 -9.58972 35692 ft 448 kts 292°
2026-04-14 14:40 54.75592 -9.68246 35688 ft 449 kts 292°
2026-04-14 14:40 54.78793 -9.77516 35689 ft 449 kts 292°
2026-04-14 14:41 54.81986 -9.86751 35694 ft 451 kts 292°
2026-04-14 14:41 54.85221 -9.96101 35690 ft 452 kts 292°
2026-04-14 14:42 54.88462 -10.05454 35684 ft 453 kts 292°
2026-04-14 14:42 54.91722 -10.14854 35680 ft 454 kts 293°
2026-04-14 14:43 54.94973 -10.24206 35678 ft 455 kts 293°
2026-04-14 14:43 54.98260 -10.33644 35663 ft 456 kts 293°
2026-04-14 14:44 55.01555 -10.43091 35696 ft 457 kts 293°
2026-04-14 14:44 55.04863 -10.52566 35664 ft 458 kts 293°
2026-04-14 14:45 55.08169 -10.62006 35668 ft 460 kts 293°
2026-04-14 14:45 55.11518 -10.71562 35650 ft 461 kts 293°
2026-04-14 14:46 55.14862 -10.81088 35651 ft 461 kts 293°
2026-04-14 14:46 55.18214 -10.90610 35635 ft 462 kts 293°
2026-04-14 14:47 55.21586 -11.00170 35635 ft 462 kts 293°
2026-04-14 14:47 55.24972 -11.09749 35646 ft 463 kts 292°
2026-04-14 14:48 55.28353 -11.19282 35641 ft 465 kts 292°
2026-04-14 14:48 55.31788 -11.28960 35624 ft 466 kts 292°
2026-04-14 14:49 55.35228 -11.38627 35616 ft 467 kts 292°
2026-04-14 14:49 55.38672 -11.48285 35615 ft 467 kts 292°
2026-04-14 14:50 55.42106 -11.57899 35613 ft 468 kts 292°
2026-04-14 14:50 55.45578 -11.67591 35599 ft 468 kts 292°
2026-04-14 14:51 55.49068 -11.77313 35598 ft 468 kts 292°
2026-04-14 14:51 55.52557 -11.87010 35598 ft 469 kts 293°
2026-04-14 14:52 55.56031 -11.96640 35586 ft 469 kts 293°
2026-04-14 14:52 55.59546 -12.06362 35586 ft 469 kts 293°
2026-04-14 14:53 55.63069 -12.16084 35571 ft 469 kts 293°
2026-04-14 14:53 55.66593 -12.25785 35572 ft 469 kts 293°
2026-04-14 14:54 55.70111 -12.35446 35581 ft 470 kts 293°
2026-04-14 14:54 55.73674 -12.45212 35585 ft 472 kts 294°
2026-04-14 14:55 55.77236 -12.54960 35564 ft 474 kts 294°
2026-04-14 14:55 55.80828 -12.64777 35555 ft 475 kts 294°
2026-04-14 14:56 55.86210 -12.79471 35538 ft 468 kts 293°
2026-04-14 14:56 55.87943 -12.84310 35529 ft 454 kts 292°
2026-04-14 14:56 55.89589 -12.89001 35518 ft 441 kts 291°
2026-04-14 14:57 55.91170 -12.93597 35528 ft 430 kts 291°
2026-04-14 14:57 55.92672 -12.98044 35516 ft 419 kts 290°
2026-04-14 14:57 55.94156 -13.02517 35495 ft 408 kts 290°
2026-04-14 14:57 55.95564 -13.06845 35492 ft 398 kts 289°
2026-04-14 14:58 55.98216 -13.15226 35516 ft 378 kts 288°
2026-04-14 14:58 56.00653 -13.23238 35494 ft 361 kts 286°
2026-04-14 14:59 56.02921 -13.31002 35472 ft 344 kts 285°
2026-04-14 14:59 56.05007 -13.38452 35471 ft 326 kts 283°
2026-04-14 15:00 56.06928 -13.45562 35470 ft 309 kts 282°
2026-04-14 15:00 56.07830 -13.48993 35465 ft 296 kts 282°
2026-04-14 15:00 56.08717 -13.52140 35428 ft 278 kts 283°
2026-04-14 15:01 56.09608 -13.55069 35384 ft 257 kts 284°
2026-04-14 15:01 56.10469 -13.57733 35266 ft 238 kts 284°
2026-04-14 15:01 56.11313 -13.60235 34740 ft 236 kts 284°
2026-04-14 15:01 56.12178 -13.62812 33960 ft 245 kts 283°
2026-04-14 15:02 56.13044 -13.65424 33489 ft 240 kts 282°
2026-04-14 15:02 56.13874 -13.67850 33192 ft 227 kts 282°
2026-04-14 15:02 56.14713 -13.70225 32619 ft 224 kts 282°
2026-04-14 15:02 56.15554 -13.72634 31834 ft 231 kts 281°
2026-04-14 15:03 56.16387 -13.75056 31274 ft 230 kts 281°
2026-04-14 15:03 56.17238 -13.77465 30900 ft 220 kts 281°
2026-04-14 15:03 56.18068 -13.79758 30390 ft 218 kts 281°
2026-04-14 15:03 56.18898 -13.82068 29746 ft 222 kts 281°
2026-04-14 15:04 56.19723 -13.84377 29214 ft 223 kts 279°
2026-04-14 15:04 56.20554 -13.86704 28679 ft 219 kts 279°
2026-04-14 15:04 56.21377 -13.88988 28132 ft 217 kts 280°
2026-04-14 15:04 56.22196 -13.91261 27526 ft 218 kts 280°
2026-04-14 15:05 56.23002 -13.93512 26969 ft 218 kts 281°
2026-04-14 15:05 56.23846 -13.95847 26454 ft 216 kts 281°
2026-04-14 15:05 56.24662 -13.98080 25941 ft 215 kts 281°
2026-04-14 15:05 56.25473 -14.00300 25415 ft 215 kts 282°
2026-04-14 15:06 56.26288 -14.02546 24916 ft 215 kts 282°
2026-04-14 15:06 56.27121 -14.04817 24456 ft 214 kts 282°
2026-04-14 15:06 56.27937 -14.07026 23990 ft 213 kts 283°
2026-04-14 15:06 56.28747 -14.09225 23512 ft 214 kts 283°
2026-04-14 15:07 56.29566 -14.11451 23074 ft 214 kts 283°
2026-04-14 15:07 56.30404 -14.13709 22566 ft 212 kts 284°
2026-04-14 15:07 56.31211 -14.15886 22040 ft 213 kts 285°
2026-04-14 15:07 56.32031 -14.18103 21522 ft 213 kts 285°
2026-04-14 15:08 56.32839 -14.20271 21085 ft 210 kts 285°
2026-04-14 15:08 56.33669 -14.22471 20604 ft 209 kts 285°
2026-04-14 15:08 56.34498 -14.24669 20116 ft 209 kts 286°
2026-04-14 15:08 56.35138 -14.26368 19755 ft 209 kts 286°
2026-04-14 15:09 56.35887 -14.28347 19355 ft 207 kts 287°
2026-04-14 15:09 56.36692 -14.30458 18918 ft 207 kts 287°
2026-04-14 15:09 56.37506 -14.32594 18477 ft 206 kts 287°
2026-04-14 15:09 56.38318 -14.34723 18060 ft 205 kts 287°
2026-04-14 15:10 56.39129 -14.36835 17639 ft 204 kts 288°
2026-04-14 15:10 56.39940 -14.38941 17159 ft 204 kts 288°
2026-04-14 15:10 56.40747 -14.41041 16704 ft 203 kts 288°
2026-04-14 15:10 56.41553 -14.43125 16250 ft 202 kts 289°
2026-04-14 15:11 56.42358 -14.45193 15810 ft 201 kts 289°
2026-04-14 15:11 56.43153 -14.47231 15382 ft 201 kts 289°
2026-04-14 15:11 56.43955 -14.49285 14961 ft 200 kts 290°
2026-04-14 15:11 56.44754 -14.51326 14553 ft 199 kts 290°
2026-04-14 15:12 56.45552 -14.53362 14146 ft 198 kts 290°
2026-04-14 15:12 56.46349 -14.55389 13753 ft 197 kts 291°
2026-04-14 15:12 56.47149 -14.57409 13386 ft 199 kts 293°
2026-04-14 15:12 56.47997 -14.59473 12792 ft 209 kts 294°
2026-04-14 15:13 56.48839 -14.61589 12465 ft 202 kts 292°
2026-04-14 15:13 56.49629 -14.63580 12160 ft 195 kts 292°
2026-04-14 15:13 56.50431 -14.65607 11645 ft 201 kts 292°
2026-04-14 15:13 56.51238 -14.67672 11288 ft 199 kts 292°
2026-04-14 15:14 56.52032 -14.69679 10952 ft 195 kts 293°
2026-04-14 15:14 56.52832 -14.71697 10503 ft 199 kts 293°
2026-04-14 15:14 56.53639 -14.73741 10140 ft 198 kts 294°
2026-04-14 15:14 56.54436 -14.75727 9796 ft 193 kts 294°
2026-04-14 15:15 56.55233 -14.77709 9376 ft 196 kts 294°
2026-04-14 15:15 56.56030 -14.79717 8965 ft 195 kts 294°
2026-04-14 15:15 56.56807 -14.81654 8613 ft 190 kts 294°
2026-04-14 15:15 56.57591 -14.83586 8183 ft 191 kts 294°
2026-04-14 15:16 56.58378 -14.85536 7791 ft 190 kts 294°
2026-04-14 15:16 56.59154 -14.87445 7450 ft 187 kts 295°
2026-04-14 15:16 56.59927 -14.89331 7057 ft 186 kts 295°
2026-04-14 15:16 56.60701 -14.91220 6682 ft 185 kts 295°
2026-04-14 15:17 56.61467 -14.93076 6342 ft 182 kts 295°
2026-04-14 15:17 56.62227 -14.94914 5971 ft 182 kts 296°
2026-04-14 15:17 56.62979 -14.96727 5608 ft 181 kts 296°
2026-04-14 15:17 56.63736 -14.98530 5256 ft 178 kts 296°
2026-04-14 15:18 56.64485 -15.00308 4884 ft 177 kts 296°
2026-04-14 15:18 56.65232 -15.02076 4558 ft 175 kts 296°
2026-04-14 15:18 56.65974 -15.03820 4233 ft 173 kts 296°
2026-04-14 15:18 56.66710 -15.05539 3877 ft 173 kts 296°
2026-04-14 15:19 56.67448 -15.07255 3544 ft 171 kts 296°
2026-04-14 15:19 56.68170 -15.08929 3249 ft 167 kts 296°
2026-04-14 15:19 56.68883 -15.10571 2948 ft 168 kts 296°
2026-04-14 15:19 56.69607 -15.12229 2641 ft 167 kts 296°
2026-04-14 15:20 56.70333 -15.13896 2306 ft 169 kts 297°
2026-04-14 15:20 56.71061 -15.15553 2030 ft 167 kts 298°
2026-04-14 15:20 56.71792 -15.17193 1697 ft 167 kts 298°
2026-04-14 15:20 56.72529 -15.18858 1322 ft 170 kts 300°
2026-04-14 15:21 56.73285 -15.20493 964 ft 169 kts 301°
2026-04-14 15:21 56.74000 -15.22181 621 ft 167 kts 300°
2026-04-14 15:21 56.74678 -15.23862 293 ft 166 kts 301°
2026-04-14 15:21 56.75328 -15.25350 8 ft 79 kts 358°
2026-04-14 15:22 56.75380 -15.25464 0 ft 0 kts 357°
2026-04-14 15:22 56.75381 -15.25464 1 ft 0 kts 358°
2026-04-14 15:23 56.75382 -15.25464 0 ft 0 kts 358°
2026-04-14 15:23 56.75382 -15.25465 1 ft 0 kts 358°
2026-04-14 15:24 56.75383 -15.25465 2 ft 0 kts
2026-04-14 15:25 56.75383 -15.25466 3 ft 0 kts
2026-04-14 15:25 56.75384 -15.25466 0 ft 0 kts
2026-04-14 15:26 56.75384 -15.25467 2 ft 0 kts 359°
2026-04-14 15:27 56.75385 -15.25467 0 ft 0 kts
2026-04-14 15:27 56.75385 -15.25468 0 ft 0 kts
2026-04-14 15:28 56.75386 -15.25468 -1 ft 0 kts
2026-04-14 15:28 56.75386 -15.25469 -1 ft 0 kts
2026-04-14 15:29 56.75387 -15.25469 -1 ft 0 kts
2026-04-14 15:30 56.75388 -15.25470 0 ft 0 kts
2026-04-14 15:31 56.75389 -15.25470 0 ft 0 kts
2026-04-14 15:31 56.75389 -15.25471 2 ft 0 kts
2026-04-14 15:32 56.75390 -15.25471 -1 ft 0 kts 10°
2026-04-14 15:32 56.75390 -15.25472 -1 ft 0 kts 10°
2026-04-14 15:33 56.75391 -15.25472 -1 ft 0 kts 11°
2026-04-14 15:34 56.75392 -15.25473 -1 ft 0 kts 12°
2026-04-14 15:34 56.75393 -15.25473 0 ft 0 kts 13°
2026-04-14 15:35 56.75393 -15.25474 0 ft 0 kts 13°
2026-04-14 15:35 56.75394 -15.25474 1 ft 0 kts 14°
2026-04-14 15:36 56.75394 -15.25475 4 ft 0 kts 15°
2026-04-14 15:37 56.75395 -15.25475 2 ft 0 kts 17°
2026-04-14 15:37 56.75395 -15.25476 2 ft 0 kts 19°
2026-04-14 15:37 56.75396 -15.25476 2 ft 0 kts 19°
2026-04-14 15:38 56.75396 -15.25477 2 ft 0 kts 24°
2026-04-14 15:39 56.75397 -15.25477 2 ft 0 kts 25°
2026-04-14 15:40 56.75398 -15.25477 -1 ft 0 kts 26°
2026-04-14 15:40 56.75398 -15.25478 0 ft 0 kts 28°
2026-04-14 15:41 56.75399 -15.25478 0 ft 0 kts 28°
2026-04-14 15:41 56.75400 -15.25479 0 ft 0 kts 30°
2026-04-14 15:43 56.75401 -15.25479 -1 ft 0 kts 33°
2026-04-14 15:43 56.75401 -15.25480 0 ft 0 kts 34°
2026-04-14 15:44 56.75402 -15.25480 0 ft 0 kts 35°
2026-04-14 15:45 56.75402 -15.25481 0 ft 0 kts 36°
2026-04-14 15:45 56.75403 -15.25481 1 ft 0 kts 39°
2026-04-14 15:46 56.75404 -15.25482 0 ft 0 kts 40°
2026-04-14 15:48 56.75405 -15.25482 -1 ft 0 kts 44°
2026-04-14 15:49 56.75406 -15.25483 0 ft 0 kts 46°
2026-04-14 15:49 56.75407 -15.25483 1 ft 0 kts 47°
2026-04-14 15:50 56.75408 -15.25483 0 ft 0 kts 48°
2026-04-14 15:51 56.75408 -15.25484 2 ft 0 kts 51°
2026-04-14 15:51 56.75409 -15.25484 3 ft 0 kts 51°
2026-04-14 15:52 56.75409 -15.25485 3 ft 0 kts 52°
2026-04-14 15:52 56.75410 -15.25485 4 ft 0 kts 53°
2026-04-14 15:53 56.75411 -15.25485 3 ft 0 kts 59°
2026-04-14 15:54 56.75412 -15.25485 2 ft 0 kts 62°
2026-04-14 15:55 56.75412 -15.25486 0 ft 0 kts 64°
2026-04-14 15:55 56.75413 -15.25486 1 ft 0 kts 65°
2026-04-14 15:55 56.75413 -15.25487 0 ft 0 kts 68°
2026-04-14 15:56 56.75414 -15.25487 -1 ft 0 kts 71°
2026-04-14 15:57 56.75414 -15.25488 0 ft 0 kts 72°
2026-04-14 15:57 56.75415 -15.25488 0 ft 0 kts 73°
2026-04-14 15:58 56.75416 -15.25488 -1 ft 0 kts 78°
2026-04-14 15:59 56.75417 -15.25488 1 ft 0 kts 81°
2026-04-14 15:59 56.75418 -15.25488 -1 ft 0 kts 82°
2026-04-14 16:00 56.75419 -15.25488 -1 ft 0 kts 83°
2026-04-14 16:00 56.75419 -15.25489 0 ft 0 kts 85°
2026-04-14 16:01 56.75419 -15.25488 -2 ft 0 kts 87°
2026-04-14 16:01 56.75420 -15.25489 -2 ft 0 kts 87°
2026-04-14 16:02 56.75421 -15.25489 -2 ft 0 kts 89°
2026-04-14 16:03 56.75422 -15.25489 -4 ft 0 kts 89°
2026-04-14 16:04 56.75423 -15.25489 0 ft 0 kts 90°
2026-04-14 16:05 56.75424 -15.25489 0 ft 0 kts 91°
2026-04-14 16:06 56.75425 -15.25489 -1 ft 0 kts 94°
2026-04-14 16:06 56.75425 -15.25490 0 ft 0 kts 97°
2026-04-14 16:07 56.75426 -15.25490 0 ft 0 kts 99°
2026-04-14 16:08 56.75427 -15.25490 -1 ft 0 kts 101°
2026-04-14 16:09 56.75428 -15.25490 0 ft 0 kts 106°
2026-04-14 16:10 56.75429 -15.25490 1 ft 0 kts 110°
2026-04-14 16:11 56.75430 -15.25490 0 ft 0 kts 112°
2026-04-14 16:12 56.75431 -15.25490 0 ft 0 kts 114°
2026-04-14 16:13 56.75432 -15.25490 1 ft 0 kts 117°
2026-04-14 16:13 56.75432 -15.25489 0 ft 0 kts 117°
2026-04-14 16:14 56.75433 -15.25489 1 ft 0 kts 120°
2026-04-14 16:15 56.75434 -15.25488 1 ft 0 kts 122°
2026-04-14 16:16 56.75435 -15.25488 -1 ft 0 kts 124°
2026-04-14 16:17 56.75436 -15.25488 0 ft 0 kts 128°
2026-04-14 16:18 56.75436 -15.25487 -5 ft 0 kts 128°
2026-04-14 16:18 56.75437 -15.25487 -3 ft 0 kts 130°
2026-04-14 16:19 56.75437 -15.25486 -3 ft 0 kts 131°
2026-04-14 16:20 56.75438 -15.25486 -3 ft 0 kts 132°
2026-04-14 16:21 56.75439 -15.25486 -2 ft 0 kts 135°
2026-04-14 16:22 56.75439 -15.25485 -3 ft 0 kts 134°
2026-04-14 16:24 56.75439 -15.25484 -3 ft 0 kts 136°
2026-04-14 16:24 56.75440 -15.25484 -2 ft 0 kts 136°
2026-04-14 16:26 56.75441 -15.25484 0 ft 0 kts 141°